www.pogodaiklimat.ru

АРХИВ ПОГОДЫ в Барроу

Время (UTC), дата Ветер
(напр.,м/с)
 
Видим.   Явления Облачность Т
(С)
Тd
(С)
f
(%)
Тe
(С)
Тes
(С)
Комфортность

P
(гПа)

Po
(гПа)
Тmin
(С)
Tmax
(С)
R
(мм)
SD
(см)
23:53 23.05 СВ  16 км    10/5 150 м
[средняя] 
+1.1  -1.1  85  -4  -3    1016.0  1014.2         
00:53 24.05 СВ  16 км    10/0 2100 м
[средняя] 
+1.1  -1.1  85  -5  -5    1015.4  1013.6         
01:53 24.05 СВ  16 км    10/0 2100 м
[средняя] 
+1.1  -1.1  85  -5  -4    1015.2  1013.6         
02:23 24.05 С  16 км    10/5 180 м
[средняя] 
+1.1  -1.1  85  -3  -3      1013.9         
02:43 24.05 СВ  16 км    10/10 180 м  +1.1  -1.1  85  -4  -4      1013.6         
02:51 24.05 СВ  16 км    10/10 180 м  +1.0  -1.0  86  -4  -4      1013.6         
02:53 24.05 СВ  16 км    10/10 570 м  +0.6  -1.1  88  -5  -5    1015.1  1013.6         
03:53 24.05 СВ  16 км    10/10 330 м  +1.1  -1.1  85  -4  -4    1015.0  1013.2         
04:53 24.05 СВ  16 км    10/10 1650 м  +0.6  -1.1  88  -5  -5    1014.8  1013.2  +0.6  +1.7     
05:50 24.05 СВ  16 км    10/10 120 м  +1.0  -1.0  86  -4  -4      1013.2         
05:53 24.05 СВ  16 км    10/10 120 м  +0.6  -1.1  88  -4  -4    1014.9  1013.2         
06:09 24.05 В  16 км    10/10 120 м  +0.6  -0.6  92  -4  -4      1013.2         
06:45 24.05 В  16 км    10/10 120 м  +0.6  -0.6  92  -4  -4      1013.2         
06:53 24.05 В  16 км    10/10 120 м  +0.6  -0.6  92  -4  -4    1015.0  1013.2         
07:16 24.05 В  16 км    10/10 360 м  +0.6  -0.6  92  -2  -2      1013.2         
07:53 24.05   16 км    10/10 390 м  +0.6  -1.1  88  -1  -1    1015.1  1013.2         
08:12 24.05 В  16 км    10/10 390 м  +0.6  -1.1  88  -2  -2      1013.2         
08:39 24.05 ЮВ  16 км    10/10 360 м  0.0  -1.1  92  -3  -3      1013.2         
08:53 24.05 ЮВ  16 км    10/10 360 м  0.0  -1.1  92  -4  -4    1015.0  1013.2         
09:27 24.05   16 км    10/10 180 м  0.0  -0.6  96  -1  -1      1013.2         
09:49 24.05 Ю  3 км  дымка  10/10 120 м  0.0  -1.0  93  -5  -5      1013.2         
09:53 24.05 Ю  800 м  туман  10/10 90 м  0.0  -0.6  96  -4  -4    1014.9  1013.2         
10:20 24.05 Ю  400 м  туман  ?/?  0.0  -0.6  96  -5  -5      1013.2         
10:48 24.05 ЮЗ  400 м  туман  ?/?  0.0  0.0  100  -5  -5      1013.2         
10:53 24.05 ЮЗ  400 м  туман  ?/?  +0.6  0.0  96  -4  -4    1014.8  1013.2  0.0  +0.6     
11:13 24.05 ЮЗ  400 м  туман  ?/?  +0.6  0.0  96  -4  -4      1012.9         
11:53 24.05 ЮЗ  400 м  туман  ?/?  +0.6  0.0  96  -5  -5    1014.8  1013.2         
12:14 24.05 ЮЗ  400 м  туман  ?/?  +0.6  0.0  96  -5  -5      1012.9         
12:51 24.05 ЮЗ  2 км  дымка  10/10 90 м  0.0  0.0  100  -6  -6      1013.2         
12:53 24.05 ЮЗ  1 км  дымка  10/10 90 м  0.0  0.0  100  -7  -7    1014.9  1013.2         
13:02 24.05 ЮЗ  400 м  туман  ?/?  0.0  -0.6  96  -7  -7      1013.2         
13:15 24.05 ЮЗ  400 м  туман  ?/?  0.0  -0.6  96  -7  -7      1013.2         
13:53 24.05 ЮЗ  7
{10} 
400 м  туман  ?/?  0.0  -0.6  96  -8  -8    1014.9  1013.2         
14:04 24.05 ЮЗ  2 км  дымка  10/10 60 м  0.0  -0.6  96  -8  -8      1012.9         
14:22 24.05 ЮЗ  5 км  дымка  10/10 60 м  0.0  -0.6  96  -8  -8      1013.2         
14:33 24.05 З  3 км  дымка  10/10 60 м  0.0  -0.6  96  -7  -7      1013.2         
14:47 24.05 ЮЗ  800 м  туман  10/10 90 м  0.0  -1.0  93  -8  -8      1013.2         
14:53 24.05 З  400 м  туман  ?/?  0.0  -0.6  96  -8  -8    1014.9  1013.2         
15:15 24.05 ЮЗ  2 км  дымка  ?/?  0.0  -1.1  92  -8  -8      1013.6         
15:24 24.05 ЮЗ  5 км  дымка  10/10 90 м  0.0  -1.1  92  -8  -8      1013.2         
15:37 24.05 ЮЗ  4 км  дымка  10/10 90 м  0.0  -0.6  96  -8  -8      1013.6         
15:45 24.05 ЮЗ  14 км    10/10 120 м  0.0  -1.1  92  -8  -8      1013.2         
15:53 24.05 ЮЗ  16 км    10/10 150 м  0.0  -0.6  96  -8  -8    1015.1  1013.6         
16:53 24.05 ЮЗ  8
{12} 
8 км  слабый снег, дымка  10/10 180 м  0.0  -1.1  92  -8  -8    1015.3  1013.6  0.0  +0.6     
17:07 24.05 ЮЗ  3 км  слабый снег, дымка  10/10 180 м  0.0  -1.1  92  -8  -8      1013.6         
17:18 24.05 ЮЗ  4 км  слабый снег, дымка  10/10 150 м  0.0  -1.1  92  -8  -8      1013.6         
17:29 24.05 ЮЗ  6 км  слабый снег, дымка  10/10 180 м  0.0  -1.1  92  -8  -8      1013.6         
17:53 24.05 ЮЗ  9
{13} 
16 км    10/10 180 м  0.0  -1.1  92  -9  -9    1015.2  1013.6         

 

Местоположение метеостанции Wiley Post-Will Rogers Memorial Airport: широта 71.2853 долгота -156.7658 высота над уровнем моря 13 м.

В архиве по умолчанию представлена погода в Барроу за последние 1-2 суток. Обновление информации о фактической погоде в базе происходит ежечасно! Архивные данные за месяц целиком и за предыдущие месяцы Вы можете получить, выбрав интересующий диапазон дат из раскрывающегося списка и нажав кнопку "Ввод!".

Внимание! Архив погоды МЕТАР в базе сайта в настоящее время начинается c 1 января 2011 г. Нет смысла пытаться выбрать более раннюю дату.

Внимание! Время в таблицах - всемирное. Для получения местного времени необходимо прибавить поправку, которая в Барроу равна -9 ч.

Ветер - указаны скорость ветра в м/с и направление, откуда дует ветер: С - северный, СВ - северо-восточный, В - восточный, ЮВ - юго-восточный, Ю - южный, ЮЗ - юго-западный, З - западный, СЗ - северо-западный.
Видимость - горизонтальная дальность видимости в метрах или километрах. При видимости от 1 до 10 км при отсутствии осадков обычно наблюдается дымка, при ухудшении видимости до 1 км и менее - туман. В сухую погоду видимость может ухудшаться дымом, пылью или мглою.
Атмосферные явления - указаны явления, наблюдавшиеся в указанный момент времени.
Облачность - указаны через наклонную черту верхняя и нижняя облачность в баллах и высота нижней границы облаков в метрах. Внимание: облачность, как и прочие метеорологические величины в США измеряются автоматическими метеостанциями. Указанные значения в баллах носят условный характер и показывают процент времени, в течение которого, в среднем, лазерный луч высотомера отражался от облаков обратно.
T - Температура воздуха - температура, измеренная на высоте 2 м над землей.
Td - Температура точки росы - температура, при понижении до которой содержащийся в воздухе водяной пар достигнет насыщения.
f - Относительная влажность воздуха - влажноcть воздуха, измеренная на высоте 2 м над землей.
Te - Эффективная температура - температура, которую ощущает одетый по сезону человек в тени. Характеристика душности погоды. При расчете учитывается влияние влажности воздуха и скорости ветра на теплоощущения человека.
Tes - Эффективная температура на солнце - температура, которую ощущает человек, с поправкой на солнечный нагрев. Характеристика знойности погоды. Зависит от высоты солнца над горизонтом, облачности и скорости ветра. Ночью, в пасмурную погоду, а также при ветре 12 м/с и более поправка равна нулю.
P - Атмосферное давление - приведенное к уровню моря атмосферное давление.
Po - Атмосферное давление - измеренное на уровне метеостанции атмосферное давление.
Tmin - Минимальная температура - минимум температуры воздуха на высоте 2 м над землей.
Tmax - Максимальная температура - максимум температуры воздуха на высоте 2 м над землей.
R - Количество осадков - Количество выпавших осадков за 3 или 6 часов, мм.
SD - Снежный покров - Высота снежного покрова, см.